Randolph, MN

5:18 PM CDT on September 29, 2016 (GMT -0500)
Stanton

Weather History for KSYN - October, 2012

Change the Weather History Date:

Tuesday, October 2, 2012

  Actual Average (KLVN) Record (KLVN)
Temperature  
Mean Temperature 54 °F -  
Max Temperature 72 °F 68 °F 107 °F (1998)
Min Temperature 35 °F 42 °F 20 °F (1974)
Degree Days  
Heating Degree Days 12    
Growing Degree Days 4 (Base 50)    
Moisture  
Dew Point 36 °F    
Average Humidity 59    
Maximum Humidity 93    
Minimum Humidity 24    
Precipitation  
Precipitation 0.00 in - - ()
Sea Level Pressure  
Sea Level Pressure 29.91 in    
Wind  
Wind Speed 1 mph (South)    
Max Wind Speed 6 mph    
Max Gust Speed -    
Visibility 9 miles    
Events      
Averages and records for this station are not official NWS values.
T = Trace of Precipitation, MM = Missing Value Source: NWS Daily Summary

Daily Weather History Graph

Daily Weather History Graph

Search for Another Location

Airport or City:

Trip Planner

Search our weather history database for the weather conditions in past years. The results will help you decide how hot, cold, wet, or windy it might be!

Date:

Astronomy

Oct. 02, 2012 Rise Set
Actual Time 7:11 AM CDT 6:49 PM CDT
Civil Twilight 6:42 AM CDT 7:18 PM CDT
Nautical Twilight 6:08 AM CDT 7:52 PM CDT
Astronomical Twilight 5:34 AM CDT 8:26 PM CDT
Moon 7:54 PM CDT (10/2) 9:47 AM CDT (10/2)
Length of Visible Light 12h 36m
Length of Day
11h 38m
Waning Gibbous, 94% of the Moon is Illuminated
Oct 2
Waning Gibbous
Oct 8
Last Quarter
Oct 15
New
Oct 21
First Quarter
Oct 29
Full

Hourly Weather History & Observations

Time (CDT) Temp. Windchill Dew Point Humidity Pressure Visibility Wind Dir Wind Speed Gust Speed Precip Events Conditions
12:12 AM 43.7 °F - 38.3 °F 81% 29.93 in 10.0 mi Calm Calm - N/A   Clear
12:32 AM 44.8 °F - 39.0 °F 80% 29.93 in 10.0 mi Calm Calm - N/A   Clear
12:52 AM 44.1 °F - 39.2 °F 83% 29.94 in 10.0 mi Calm Calm - N/A   Clear
1:12 AM 42.8 °F - 38.5 °F 85% 29.94 in 10.0 mi Calm Calm - N/A   Clear
1:32 AM 42.8 °F - 38.3 °F 84% 29.94 in 10.0 mi Calm Calm - N/A   Clear
1:52 AM 42.4 °F - 37.6 °F 83% 29.95 in 10.0 mi Calm Calm - N/A   Clear
2:12 AM 40.3 °F - 36.1 °F 85% 29.95 in 10.0 mi Calm Calm - N/A   Clear
2:32 AM 40.3 °F 38.2 °F 36.7 °F 87% 29.95 in 10.0 mi South 3.5 mph - N/A   Clear
3:12 AM 39.2 °F - 35.2 °F 86% 29.94 in 10.0 mi Calm Calm - N/A   Clear
3:32 AM 38.8 °F - 35.2 °F 87% 29.94 in 10.0 mi Calm Calm - N/A   Clear
3:52 AM 39.4 °F 37.2 °F 35.4 °F 86% 29.94 in 10.0 mi SSW 3.5 mph - N/A   Clear
3:54 AM 39.4 °F - 35.2 °F 85% 29.94 in 10.0 mi Calm Calm - N/A   Clear
4:25 AM 37.4 °F 34.9 °F 33.8 °F 87% 29.94 in 10.0 mi SW 3.5 mph - N/A   Clear
4:45 AM 37.4 °F 34.9 °F 33.8 °F 87% 29.94 in 10.0 mi SSW 3.5 mph - N/A   Clear
5:25 AM 37.4 °F 34.9 °F 33.8 °F 87% 29.94 in 10.0 mi SSW 3.5 mph - N/A   Clear
5:45 AM 37.4 °F - 33.8 °F 87% 29.95 in 10.0 mi Calm Calm - N/A   Clear
6:05 AM 35.6 °F - 33.8 °F 93% 29.96 in 10.0 mi Calm Calm - N/A   Clear
6:25 AM 37.4 °F - 33.8 °F 87% 29.95 in 10.0 mi Calm Calm - N/A   Clear
6:45 AM 35.6 °F 32.8 °F 33.8 °F 93% 29.96 in 10.0 mi SSW 3.5 mph - N/A   Clear
7:05 AM 35.6 °F - 32.0 °F 87% 29.97 in 10.0 mi Calm Calm - N/A   Clear
7:25 AM 35.6 °F - 32.0 °F 87% 29.96 in 10.0 mi Calm Calm - N/A   Clear
7:45 AM 35.6 °F - 33.8 °F 93% 29.96 in 10.0 mi Calm Calm - N/A   Clear
8:11 AM 38.8 °F - 35.6 °F 88% 29.97 in 10.0 mi Calm Calm - N/A   Clear
8:13 AM 39.0 °F - 35.8 °F 88% 29.97 in 10.0 mi Calm Calm - N/A   Clear
8:32 AM 42.6 °F - 38.1 °F 84% 29.97 in 10.0 mi Calm Calm - N/A   Clear
8:52 AM 45.1 °F - 39.6 °F 81% 29.97 in 10.0 mi Calm Calm - N/A   Clear
9:12 AM 48.2 °F - 39.4 °F 72% 29.97 in 10.0 mi Calm Calm - N/A   Clear
9:32 AM 51.1 °F - 40.8 °F 68% 29.97 in 10.0 mi Calm Calm - N/A   Clear
9:52 AM 54.9 °F - 41.2 °F 60% 29.96 in 10.0 mi Calm Calm - N/A   Clear
10:12 AM 58.5 °F - 43.0 °F 56% 29.96 in 10.0 mi Calm Calm - N/A   Clear
10:32 AM 61.2 °F - 43.9 °F 53% 29.95 in 10.0 mi Calm Calm - N/A   Clear
10:52 AM 64.4 °F - 43.7 °F 47% 29.94 in 10.0 mi ESE 4.6 mph - N/A   Clear
11:12 AM 66.0 °F - 41.9 °F 41% 29.94 in 10.0 mi Calm Calm - N/A   Clear
11:32 AM 66.0 °F - 39.6 °F 38% 29.94 in 10.0 mi SE 3.5 mph - N/A   Clear
11:52 AM 67.5 °F - 39.9 °F 37% 29.93 in 10.0 mi ESE 5.8 mph - N/A   Clear
12:12 PM 67.6 °F - 39.2 °F 35% 29.93 in 10.0 mi ESE 5.8 mph - N/A   Clear
12:32 PM 67.8 °F - 37.9 °F 33% 29.93 in 10.0 mi SE 3.5 mph - N/A   Clear
12:52 PM 68.4 °F - 37.4 °F 32% 29.92 in 10.0 mi Calm Calm - N/A   Clear
1:12 PM 69.4 °F - 38.5 °F 32% 29.91 in 10.0 mi SSE 3.5 mph - N/A   Clear
1:32 PM 69.6 °F - 36.3 °F 29% 29.90 in 10.0 mi Calm Calm - N/A   Clear
1:52 PM 69.6 °F - 34.2 °F 27% 29.89 in 10.0 mi Calm Calm - N/A   Clear
2:12 PM 70.3 °F - 35.2 °F 28% 29.88 in 10.0 mi West 3.5 mph - N/A   Clear
2:32 PM 70.5 °F - 33.4 °F 26% 29.88 in 10.0 mi NW 4.6 mph - N/A   Clear
2:52 PM 71.2 °F - 33.1 °F 25% 29.87 in 10.0 mi Calm Calm - N/A   Clear
3:12 PM 72.0 °F - 33.8 °F 25% 29.86 in 10.0 mi SSE 5.8 mph - N/A   Clear
3:32 PM 72.0 °F - 33.1 °F 24% 29.86 in 10.0 mi Calm Calm - N/A   Clear
3:52 PM 72.5 °F - 33.1 °F 24% 29.86 in 10.0 mi South 4.6 mph - N/A   Clear
4:12 PM 71.8 °F - 32.5 °F 24% 29.85 in 10.0 mi Calm Calm - N/A   Clear
4:32 PM 72.5 °F - 33.1 °F 24% 29.85 in 10.0 mi SSE 4.6 mph - N/A   Clear
4:52 PM 72.5 °F - 33.3 °F 24% 29.85 in 10.0 mi South 3.5 mph - N/A   Clear
5:12 PM 71.8 °F - 33.1 °F 24% 29.84 in 10.0 mi SSE 3.5 mph - N/A   Clear
5:32 PM 72.0 °F - 32.7 °F 24% 29.84 in 10.0 mi SSW 5.8 mph - N/A   Clear
5:52 PM 70.9 °F - 32.0 °F 24% 29.85 in 10.0 mi South 4.6 mph - N/A   Clear
6:12 PM 69.6 °F - 32.4 °F 25% 29.85 in 10.0 mi South 3.5 mph - N/A   Clear
6:32 PM 67.8 °F - 32.5 °F 27% 29.85 in 10.0 mi SSE 3.5 mph - N/A   Clear
7:12 PM 61.5 °F - 36.1 °F 39% 29.85 in 10.0 mi SSE 3.5 mph - N/A   Clear
7:31 PM 58.5 °F - 37.0 °F 45% 29.85 in 3.0 mi SSE 3.5 mph - N/A   Haze
8:12 PM 53.6 °F - 37.0 °F 53% 29.86 in 4.0 mi Calm Calm - N/A   Haze
8:32 PM 52.3 °F - 37.0 °F 56% 29.86 in 4.0 mi Calm Calm - N/A   Haze
8:52 PM 50.9 °F - 36.5 °F 58% 29.86 in 4.0 mi SW 3.5 mph - N/A   Haze
9:12 PM 50.0 °F - 35.4 °F 57% 29.86 in 3.0 mi Calm Calm - N/A   Haze
9:32 PM 51.4 °F - 36.9 °F 58% 29.87 in 5.0 mi Calm Calm - N/A   Haze
9:52 PM 48.0 °F - 36.1 °F 63% 29.88 in 7.0 mi Calm Calm - N/A   Clear
10:12 PM 48.9 °F - 36.3 °F 62% 29.88 in 5.0 mi Calm Calm - N/A   Haze
10:32 PM 49.1 °F - 37.4 °F 64% 29.88 in 7.0 mi Calm Calm - N/A   Clear
10:52 PM 49.1 °F - 37.0 °F 63% 29.88 in 7.0 mi SSW 3.5 mph - N/A   Clear
11:12 PM 47.3 °F - 37.2 °F 68% 29.86 in 5.0 mi South 3.5 mph - N/A   Haze
11:32 PM 48.6 °F - 37.9 °F 67% 29.87 in 7.0 mi SW 3.5 mph - N/A   Clear
11:52 PM 48.4 °F - 38.5 °F 69% 29.88 in 10.0 mi WSW 3.5 mph - N/A   Clear